Weather History for KLAA - March, 2012

Change the Weather History Date:

Tuesday, March 6, 2012

  Actual Average Record
Temperature  
Mean Temperature 55 °F 39 °F  
Max Temperature 77 °F 55 °F 86 °F (1925)
Min Temperature 32 °F 23 °F -17 °F (1948)
Degree Days  
Heating Degree Days 10 26  
Month to date heating degree days 132 161  
Since 1 July heating degree days 4310 4472  
Cooling Degree Days 0 0  
Month to date cooling degree days 0 0  
Year to date cooling degree days 0 0  
Growing Degree Days 4 (Base 50)    
Moisture  
Dew Point 13 °F    
Average Humidity 31    
Maximum Humidity 56    
Minimum Humidity 5    
Precipitation  
Precipitation 0.00 in 0.03 in 0.38 in (1992)
Month to date precipitation 0.12 0.15  
Year to date precipitation 0.32 0.82  
Snow  
Snow 0.00 in - - ()
Month to date snowfall 0.0  
Snow Depth 0.00 in    
Sea Level Pressure  
Sea Level Pressure 29.56 in    
Wind  
Wind Speed 7 mph (SW)    
Max Wind Speed 22 mph    
Max Gust Speed 29 mph    
Visibility 10 miles    
Events      
T = Trace of Precipitation, MM = Missing Value Source: NWS Daily Summary

Daily Weather History Graph

Daily Weather History Graph

Search for Another Location

Airport or City:

Trip Planner

Search our weather history database for the weather conditions in past years. The results will help you decide how hot, cold, wet, or windy it might be!

Date:

Astronomy

Mar. 06, 2012 Rise Set
Actual Time 6:14 AM MST 5:49 PM MST
Civil Twilight 5:48 AM MST 6:16 PM MST
Nautical Twilight 5:17 AM MST 6:46 PM MST
Astronomical Twilight 4:47 AM MST 7:17 PM MST
Moon 4:19 PM MST (3/6) 4:50 AM MST (3/6)
Length of Visible Light 12h 27m
Length of Day
11h 35m
Waxing Gibbous, 96% of the Moon is Illuminated
Mar 6
Waxing Gibbous
Mar 8
Full
Mar 14
Last Quarter
Mar 22
New
Mar 30
First Quarter

Hourly Weather History & Observations

Time (MST) Temp. Windchill Dew Point Humidity Pressure Visibility Wind Dir Wind Speed Gust Speed Precip Events Conditions
12:53 AM 44.1 °F 42.5 °F 10.9 °F 26% 29.74 in 10.0 mi WNW 3.5 mph - N/A   Clear
1:53 AM 34.0 °F 29.8 °F 16.0 °F 48% 29.73 in 10.0 mi West 4.6 mph - N/A   Clear
2:53 AM 39.9 °F 33.9 °F 18.0 °F 41% 29.69 in 10.0 mi SSW 9.2 mph - N/A   Clear
3:53 AM 39.9 °F 33.9 °F 19.0 °F 43% 29.68 in 10.0 mi SSW 9.2 mph - N/A   Clear
4:53 AM 37.0 °F - 17.1 °F 44% 29.68 in 10.0 mi Calm Calm - N/A   Clear
5:53 AM 34.0 °F 31.0 °F 18.0 °F 52% 29.70 in 10.0 mi WSW 3.5 mph - N/A   Clear
6:53 AM 33.1 °F - 19.9 °F 59% 29.72 in 10.0 mi Calm Calm - N/A   Clear
7:53 AM 37.9 °F - 21.9 °F 53% 29.72 in 10.0 mi Calm Calm - N/A   Clear
9:53 AM 57.9 °F - 21.9 °F 25% 29.65 in 10.0 mi Calm Calm - N/A   Clear
10:53 AM 64.0 °F - 18.0 °F 17% 29.60 in 10.0 mi Variable 4.6 mph - N/A   Clear
11:53 AM 70.0 °F - 10.9 °F 10% 29.54 in 10.0 mi WSW 6.9 mph - N/A   Clear
12:53 PM 75.9 °F - 6.1 °F 7% 29.48 in 10.0 mi SW 18.4 mph 28.8 mph N/A   Clear
1:53 PM 75.0 °F - 5.0 °F 7% 29.47 in 10.0 mi SW 16.1 mph - N/A   Clear
2:53 PM 75.9 °F - 1.0 °F 5% 29.42 in 10.0 mi SSW 9.2 mph - N/A   Clear
4:53 PM 73.9 °F - -0.0 °F 5% 29.37 in 10.0 mi South 16.1 mph - N/A   Clear
5:53 PM 61.0 °F - 6.1 °F 11% 29.41 in 10.0 mi South 10.4 mph - N/A   Clear
7:53 PM 50.0 °F - 10.9 °F 21% 29.45 in 10.0 mi SSW 11.5 mph - N/A   Clear
8:53 PM 50.0 °F - 10.9 °F 21% 29.45 in 10.0 mi SSW 11.5 mph - N/A   Clear
9:53 PM 45.0 °F 40.6 °F 12.0 °F 26% 29.46 in 10.0 mi SSW 8.1 mph - N/A   Clear
10:53 PM 39.9 °F 35.8 °F 12.9 °F 33% 29.45 in 10.0 mi South 5.8 mph - N/A   Clear
11:53 PM 41.0 °F 36.4 °F 14.0 °F 33% 29.43 in 10.0 mi SW 6.9 mph - N/A   Clear